loading
|

THOR ABLESTAR DEB, 132

Orbit data source: Space-Track

THOR ABLESTAR DEB, 132 is space debris in LEO originally from a launch on Thu, 29 Jun 1961 UTC launched from the Air Force Eastern Test Range (AFETR). Debris objects in space refer to the collection of defunct objects orbiting the Earth. Examples of debris include non-operational satellites, rocket bodies, and fragments generated from explosions, collisions, or faulty payload assembly.

Loading next visibility...
Loading greatness...
THOR ABLESTAR DEB details
Identifier
132, 1961-015S
Orbit
LEO
Last TLE update22 hours ago
Origin
Flag of USUSN BuWeps (US)
ManufacturerUnknown
Mission statusUnknown
MissionUnknown
Bus & MotorUnknown
MassUnknown
Launch date (UTC)
1961-06-29 (63 years ago)
Launch vehicleUnknown
Launch site
Air Force Eastern Test Range (AFETR)
Object type
Payload
Rocket body
Debris
Radar Cross SectionMedium (>0.1 m² and <1 m²)

Expand to show TLE details & history

TLE from 22 hours ago
0 THOR ABLESTAR DEB
1   132U 61015S   24250.82774091  .00000168  00000-0  17958-3 0  9998
2   132  66.6597 134.3777 0082016 267.3655  91.8034 13.94580503213751
Epoch: 2024-09-06T19:51Z
Definitive object data (Epoch: 2024-09-06T19:51:56.814Z)
Latitude-0.00006°
Longitude-150.00374°
Altitude917.063 km
Speed7.393 km/s
True Right ascension08h 57m 30s
True Declination0° 00' 00"
Sunlit
Object was in daylight at TLE epoch
Predictive object data (real-time)
Latitude16.24006°
Longitude-145.13279°
Altitude935.042 km
Speed7.375 km/s
Apparent Right ascension07h 07m 11s
Apparent Declination-36° 04' 23"
Sunlit
Object is in daylight
Predictive observer data (real-time)
Local Sidereal Time10:28:20
Azimuth218.451° SW
Elevation1.048°
Doppler factor1
Orbital elements
Apogee970.812 km
Perigee851.246 km
Semi-major axis7,289.166 km
Eccentricity0.0082016
Inclination66.6597°
RAAN134.3777°
Arg. of periapsis267.3655°
True anomaly92.74242°
Mean anomaly91.8034°
Eccentric anomaly92.27295°
Mean motion3.4876 °/min
BSTAR0.00017958
Period103.22 mins
No data available

THOR ABLESTAR DEB Visibility forecast

Observer location: 39.9160978°, -105.1181434

THOR ABLESTAR DEB is not visible in the next 10 days
Span
Click to sort rows by Start time (UTC) header in descending order
Start Az.
Max El. time (UTC)
Max El. Az.
Max El.
End time (UTC)
End Az.